Location: PSU-Greenbush Astrophysical Observatory
(37.5140°N, 94.9880°W)
Time: 00:13:16
(UTC-06:00)

Altair - Pass Details

Date: 30 January 2020
Orbit: 1502 x 1682 km, 47.2° (Epoch: 19 February)

Event Time Altitude Azimuth Distance (km) Brightness Sun altitude
Rises 07:33:53 0° 239° (WSW) 4,820 9.7 0.7°
Reaches altitude 10° 07:36:57 10° 240° (WSW) 3,858 9.3 1.3°
Maximum altitude 07:46:56 83° 329° (NNW) 1,680 7.8 3.1°
Drops below altitude 10° 07:57:09 10° 58° (ENE) 3,948 10.2 4.9°
Sets 08:00:21 0° 60° (ENE) 4,937 10.6 5.5°
